| time (UTC) | temp C | wind direction | speed KPH | gust KPH | rain 1hr cm | rain 24hr cm | rain mn cm | humidity % | barometer mb |
| 20260906140104 | 24 | 280 | 4.8 | 9.7 | 0.00 | 0.00 | 0.00 | 81 | 1016.8 |
| 20260906135033 | 24 | 272 | 3.2 | 3.2 | 0.00 | 0.00 | 0.00 | 82 | 1016.9 |
| 20260906134033 | 24 | 280 | 1.6 | 3.2 | 0.00 | 0.00 | 0.00 | 83 | 1016.9 |
| 20260906133018 | 23 | 268 | 3.2 | 4.8 | 0.00 | 0.00 | 0.00 | 83 | 1017.0 |
| 20260906132048 | 24 | 263 | 3.2 | 4.8 | 0.00 | 0.00 | 0.00 | 84 | 1016.9 |
| 20260906131058 | 24 | 273 | 3.2 | 6.4 | 0.00 | 0.00 | 0.00 | 84 | 1017.0 |
| 20260906130058 | 24 | 267 | 3.2 | 6.4 | 0.00 | 0.00 | 0.00 | 83 | 1016.7 |
| 20260906125018 | 25 | 276 | 3.2 | 8.0 | 0.00 | 0.00 | 0.00 | 81 | 1016.4 |
| 20260906124059 | 24 | 294 | 1.6 | 4.8 | 0.00 | 0.00 | 0.00 | 82 | 1016.4 |
| 20260906123210 | 24 | 264 | 3.2 | 3.2 | 0.00 | 0.00 | 0.00 | 83 | 1016.4 |
| 20260906121547 | 24 | 273 | 3.2 | 6.4 | 0.00 | 0.00 | 0.00 | 84 | 1016.3 |
| 20260906120559 | 23 | 268 | 3.2 | 3.2 | 0.00 | 0.00 | 0.00 | 84 | 1016.3 |
| 20260906115534 | 23 | 285 | 1.6 | 3.2 | 0.00 | 0.00 | 0.00 | 83 | 1016.2 |
| 20260906114519 | 24 | 271 | 1.6 | 4.8 | 0.00 | 0.00 | 0.00 | 83 | 1016.0 |
| 20260906112600 | 24 | 275 | 3.2 | 4.8 | 0.00 | 0.00 | 0.00 | 83 | 1015.9 |
| 20260906111520 | 24 | 263 | 3.2 | 3.2 | 0.00 | 0.00 | 0.00 | 83 | 1015.8 |
| 20260906110520 | 24 | 269 | 3.2 | 4.8 | 0.00 | 0.00 | 0.00 | 83 | 1015.7 |
| 20260906105520 | 25 | 278 | 3.2 | 4.8 | 0.00 | 0.00 | 0.00 | 82 | 1015.6 |
| 20260906104520 | 25 | 271 | 3.2 | 3.2 | 0.00 | 0.00 | 0.00 | 82 | 1015.5 |
| 20260906103641 | 25 | 276 | 1.6 | 6.4 | 0.00 | 0.00 | 0.00 | 82 | 1015.5 |
| 20260906102600 | 25 | 269 | 3.2 | 4.8 | 0.00 | 0.00 | 0.00 | 82 | 1015.5 |
| 20260906101521 | 25 | 272 | 3.2 | 4.8 | 0.00 | 0.00 | 0.00 | 81 | 1015.4 |
| 20260906100520 | 25 | 264 | 3.2 | 4.8 | 0.00 | 0.00 | 0.00 | 81 | 1015.3 |
| 20260906094521 | 25 | 276 | 3.2 | 6.4 | 0.00 | 0.00 | 0.00 | 81 | 1015.2 |
| 20260906093521 | 26 | 278 | 3.2 | 4.8 | 0.00 | 0.00 | 0.00 | 80 | 1015.1 |
| 20260906092522 | 26 | 276 | 3.2 | 6.4 | 0.00 | 0.00 | 0.00 | 80 | 1015.0 |
| 20260906091521 | 26 | 271 | 3.2 | 4.8 | 0.00 | 0.00 | 0.00 | 79 | 1015.0 |
| 20260906090521 | 26 | 279 | 1.6 | 3.2 | 0.00 | 0.00 | 0.00 | 79 | 1015.0 |
| 20260906085521 | 26 | 282 | 3.2 | 6.4 | 0.00 | 0.00 | 0.00 | 78 | 1014.8 |
| 20260906084521 | 27 | 287 | 1.6 | 1.6 | 0.00 | 0.00 | 0.00 | 76 | 1014.8 |
| 20260906083138 | 27 | 274 | 1.6 | 3.2 | 0.00 | 0.00 | 0.00 | 76 | 1014.8 |
| 20260906082037 | 27 | 286 | 3.2 | 6.4 | 0.00 | 0.00 | 0.00 | 76 | 1014.7 |
| 20260906081022 | 27 | 281 | 1.6 | 3.2 | 0.00 | 0.00 | 0.00 | 77 | 1014.8 |
| 20260906075522 | 27 | 316 | 1.6 | 3.2 | 0.00 | 0.00 | 0.00 | 78 | 1014.7 |
| 20260906073038 | 28 | 271 | 1.6 | 3.2 | 0.00 | 0.00 | 0.00 | 75 | 1014.6 |
| 20260906072222 | 28 | 263 | 1.6 | 3.2 | 0.00 | 0.00 | 0.00 | 75 | 1014.6 |
| 20260906071051 | -17 | 271 | 1.6 | 1.6 | 0.00 | 0.00 | 0.00 | ||
| 20260906065051 | 28 | 268 | 1.6 | 3.2 | 0.00 | 0.00 | 0.00 | 76 | 1014.7 |
| 20260906062021 | 29 | 272 | 1.6 | 4.8 | 0.00 | 0.00 | 0.00 | 74 | 1014.7 |
| 20260906061020 | 29 | 275 | 1.6 | 4.8 | 0.00 | 0.00 | 0.00 | 74 | 1014.8 |
| 20260906060101 | 30 | 279 | 1.6 | 4.8 | 0.00 | 0.00 | 0.00 | 73 | 1014.8 |
| 20260906055018 | 30 | 277 | 1.6 | 4.8 | 0.00 | 0.00 | 0.00 | 72 | 1014.8 |
| 20260906054018 | -17 | 281 | 1.6 | 3.2 | 0.00 | 0.00 | 0.00 | ||
| 20260906053021 | 30 | 285 | 1.6 | 3.2 | 0.00 | 0.00 | 0.00 | 70 | 1014.6 |
| 20260906052021 | 30 | 277 | 1.6 | 4.8 | 0.00 | 0.00 | 0.00 | 70 | 1014.6 |
| 20260906051021 | 30 | 282 | 1.6 | 3.2 | 0.00 | 0.00 | 0.00 | 69 | 1014.5 |
| 20260906050019 | 31 | 283 | 1.6 | 3.2 | 0.00 | 0.00 | 0.00 | 69 | 1014.4 |
| 20260906045019 | 31 | 284 | 1.6 | 4.8 | 0.00 | 0.00 | 0.00 | 68 | 1014.4 |
| 20260906044019 | 31 | 286 | 1.6 | 4.8 | 0.00 | 0.00 | 0.00 | 68 | 1014.3 |
| 20260906043059 | 31 | 287 | 1.6 | 4.8 | 0.00 | 0.00 | 0.00 | 67 | 1014.3 |
| 20260906042022 | 31 | 288 | 1.6 | 4.8 | 0.00 | 0.00 | 0.00 | 66 | 1014.3 |
| 20260906041059 | 31 | 283 | 3.2 | 6.4 | 0.00 | 0.00 | 0.00 | 66 | 1014.1 |
| 20260906040019 | 31 | 288 | 1.6 | 4.8 | 0.00 | 0.00 | 0.00 | 65 | 1014.0 |
| 20260906035019 | 31 | 286 | 1.6 | 3.2 | 0.00 | 0.00 | 0.00 | 65 | 1014.0 |
| 20260906034019 | 31 | 293 | 1.6 | 3.2 | 0.00 | 0.00 | 0.00 | 63 | 1013.9 |
| 20260906032020 | 32 | 285 | 1.6 | 4.8 | 0.00 | 0.00 | 0.00 | 61 | 1013.7 |
| 20260906031100 | 32 | 289 | 1.6 | 4.8 | 0.00 | 0.00 | 0.00 | 60 | 1013.7 |
| 20260906030017 | 32 | 287 | 1.6 | 4.8 | 0.00 | 0.00 | 0.00 | 59 | 1013.6 |
| 20260906025020 | 32 | 288 | 1.6 | 4.8 | 0.00 | 0.00 | 0.00 | 58 | 1013.4 |
| 20260906024020 | 32 | 289 | 1.6 | 4.8 | 0.00 | 0.00 | 0.00 | 57 | 1013.3 |
| 20260906022017 | 32 | 290 | 1.6 | 3.2 | 0.00 | 0.00 | 0.00 | 54 | 1013.1 |
| 20260906021018 | 32 | 292 | 1.6 | 3.2 | 0.00 | 0.00 | 0.00 | 53 | 1013.0 |
| 20260906020020 | 32 | 289 | 1.6 | 3.2 | 0.00 | 0.00 | 0.00 | 53 | 1012.8 |
| 20260906015020 | 32 | 290 | 1.6 | 4.8 | 0.00 | 0.00 | 0.00 | 53 | 1012.7 |
| 20260906014019 | 32 | 291 | 1.6 | 4.8 | 0.00 | 0.00 | 0.00 | 54 | 1012.7 |
| 20260906005018 | 33 | 290 | 1.6 | 3.2 | 0.00 | 0.00 | 0.00 | 51 | 1012.1 |
| 20260906004018 | 33 | 290 | 1.6 | 3.2 | 0.00 | 0.00 | 0.00 | 50 | 1012.1 |
| 20260906003019 | 34 | 293 | 1.6 | 3.2 | 0.00 | 0.00 | 0.00 | 50 | 1012.1 |
| 20260906001059 | 35 | 295 | 3.2 | 6.4 | 0.00 | 0.00 | 0.00 | 48 | 1012.1 |
| 20260906000059 | 35 | 301 | 1.6 | 3.2 | 0.00 | 0.00 | 0.00 | 47 | 1012.1 |
| 20260905235019 | 35 | 297 | 1.6 | 4.8 | 0.00 | 0.00 | 0.00 | 45 | 1012.2 |
| 20260905234059 | 35 | 288 | 1.6 | 4.8 | 0.00 | 0.00 | 0.00 | 45 | 1012.1 |
| 20260905233019 | 36 | 285 | 3.2 | 4.8 | 0.00 | 0.00 | 0.00 | 44 | 1012.1 |
| 20260905232019 | 36 | 306 | 3.2 | 6.4 | 0.00 | 0.00 | 0.00 | 44 | 1012.1 |
| 20260905231020 | 36 | 298 | 1.6 | 3.2 | 0.00 | 0.00 | 0.00 | 43 | 1012.1 |
| 20260905230019 | 37 | 317 | 3.2 | 8.0 | 0.00 | 0.00 | 0.00 | 40 | 1012.0 |
| 20260905225020 | 37 | 289 | 3.2 | 8.0 | 0.00 | 0.00 | 0.00 | 40 | 1012.0 |
| 20260905224017 | 37 | 289 | 3.2 | 6.4 | 0.00 | 0.00 | 0.00 | 40 | 1011.9 |
| 20260905223103 | 37 | 280 | 3.2 | 6.4 | 0.00 | 0.00 | 0.00 | 40 | 1011.8 |
| 20260905222100 | 38 | 296 | 3.2 | 6.4 | 0.00 | 0.00 | 0.00 | 41 | 1011.9 |
| 20260905221020 | 38 | 299 | 1.6 | 4.8 | 0.00 | 0.00 | 0.00 | 40 | 1012.0 |
| 20260905220018 | 38 | 300 | 3.2 | 8.0 | 0.00 | 0.00 | 0.00 | 40 | 1012.0 |
| 20260905215017 | 38 | 279 | 3.2 | 8.0 | 0.00 | 0.00 | 0.00 | 39 | 1011.9 |
| 20260905214026 | 38 | 281 | 3.2 | 6.4 | 0.00 | 0.00 | 0.00 | 39 | 1011.8 |
| 20260905213024 | 38 | 300 | 3.2 | 8.0 | 0.00 | 0.00 | 0.00 | 40 | 1011.8 |
| 20260905212018 | 38 | 295 | 3.2 | 8.0 | 0.00 | 0.00 | 0.00 | 39 | 1011.9 |
| 20260905211018 | 38 | 277 | 3.2 | 8.0 | 0.00 | 0.00 | 0.00 | 38 | 1011.9 |
| 20260905210018 | 38 | 294 | 3.2 | 8.0 | 0.00 | 0.00 | 0.00 | 38 | 1012.0 |
| 20260905205058 | 38 | 306 | 3.2 | 4.8 | 0.00 | 0.00 | 0.00 | 37 | 1012.1 |
| 20260905192531 | 37 | 296 | 3.2 | 8.0 | 0.00 | 0.00 | 0.00 | 40 | 1013.0 |
| 20260905191531 | 37 | 269 | 4.8 | 6.4 | 0.00 | 0.00 | 0.00 | 40 | 1013.0 |
| 20260905190531 | 37 | 315 | 1.6 | 6.4 | 0.00 | 0.00 | 0.00 | 41 | 1013.1 |
| 20260905185531 | 37 | 300 | 3.2 | 6.4 | 0.00 | 0.00 | 0.00 | 41 | 1013.2 |
| 20260905184531 | 37 | 282 | 3.2 | 6.4 | 0.00 | 0.00 | 0.00 | 41 | 1013.4 |
| 20260905183531 | 37 | 284 | 4.8 | 6.4 | 0.00 | 0.00 | 0.00 | 41 | 1013.5 |
| 20260905182531 | 37 | 310 | 3.2 | 4.8 | 0.00 | 0.00 | 0.00 | 42 | 1013.6 |
| 20260905181520 | 37 | 290 | 3.2 | 9.7 | 0.00 | 0.00 | 0.00 | 44 | 1013.6 |
| 20260905180531 | 36 | 291 | 3.2 | 6.4 | 0.00 | 0.00 | 0.00 | 45 | 1013.7 |
| 20260905175517 | 36 | 291 | 3.2 | 6.4 | 0.00 | 0.00 | 0.00 | 46 | 1013.7 |
| 20260905174532 | 36 | 299 | 1.6 | 3.2 | 0.00 | 0.00 | 0.00 | 47 | 1013.7 |
| 20260905173520 | 36 | 275 | 3.2 | 8.0 | 0.00 | 0.00 | 0.00 | 47 | 1013.9 |
| 20260905172532 | 36 | 270 | 4.8 | 8.0 | 0.00 | 0.00 | 0.00 | 48 | 1014.0 |
| 20260905171532 | 35 | 314 | 3.2 | 3.2 | 0.00 | 0.00 | 0.00 | 48 | 1014.2 |
| 20260905170518 | 35 | 304 | 3.2 | 4.8 | 0.00 | 0.00 | 0.00 | 49 | 1014.3 |
| 20260905165517 | 35 | 301 | 3.2 | 6.4 | 0.00 | 0.00 | 0.00 | 50 | 1014.4 |
| 20260905164517 | 34 | 292 | 4.8 | 8.0 | 0.00 | 0.00 | 0.00 | 50 | 1014.5 |
| 20260905163532 | 34 | 280 | 3.2 | 6.4 | 0.00 | 0.00 | 0.00 | 51 | 1014.6 |
| 20260905162518 | 34 | 304 | 3.2 | 4.8 | 0.00 | 0.00 | 0.00 | 52 | 1014.7 |
| 20260905161518 | 33 | 290 | 3.2 | 4.8 | 0.00 | 0.00 | 0.00 | 53 | 1014.7 |
| 20260905160558 | 33 | 287 | 3.2 | 6.4 | 0.00 | 0.00 | 0.00 | 54 | 1014.7 |
| 20260905155518 | 33 | 281 | 3.2 | 4.8 | 0.00 | 0.00 | 0.00 | 55 | 1014.8 |
| 20260905154518 | 32 | 276 | 3.2 | 6.4 | 0.00 | 0.00 | 0.00 | 55 | 1014.8 |
| 20260905153559 | 32 | 270 | 3.2 | 6.4 | 0.00 | 0.00 | 0.00 | 56 | 1014.9 |
| 20260905152518 | 32 | 281 | 3.2 | 6.4 | 0.00 | 0.00 | 0.00 | 57 | 1014.9 |
| 20260905151558 | 31 | 285 | 3.2 | 4.8 | 0.00 | 0.00 | 0.00 | 58 | 1014.9 |
| 20260905150519 | 31 | 279 | 3.2 | 4.8 | 0.00 | 0.00 | 0.00 | 60 | 1014.9 |
| 20260905145559 | 31 | 286 | 3.2 | 4.8 | 0.00 | 0.00 | 0.00 | 62 | 1015.0 |
| 20260905144559 | 30 | 277 | 3.2 | 3.2 | 0.00 | 0.00 | 0.00 | 63 | 1014.9 |
| 20260905143519 | 30 | 279 | 3.2 | 4.8 | 0.00 | 0.00 | 0.00 | 63 | 1014.9 |
| 20260905142519 | 30 | 278 | 3.2 | 4.8 | 0.00 | 0.00 | 0.00 | 63 | 1014.9 |
| 20260905141559 | 30 | 292 | 1.6 | 3.2 | 0.00 | 0.00 | 0.00 | 64 | 1014.9 |
| 20260905140519 | 30 | 272 | 3.2 | 4.8 | 0.00 | 0.00 | 0.00 | 64 | 1014.9 |